Location: Stara Lesna
(49.1528°N, 20.2911°E)
Time: 09:05:15
(UTC+02:00)

Cosmos 2123 Rocket - Pass Details

Date: 13 July 2020
Orbit: 960 x 993 km, 82.9° (Epoch: 05 August)

Event Time Altitude Azimuth Distance (km) Brightness Sun altitude
Rises 00:31:56 0° 351° (N) 3,665 8.7 -19.0°
Reaches altitude 10° 00:34:28 10° 353° (N) 2,711 7.6 -19.0°
Maximum altitude 00:40:40 74° 79° (E) 1,001 4.0 -19.0°
Enters shadow 00:43:52 30° 159° (SSE) 1,643 4.7 -19.1°
